Weather History for White Plains, NY

Change the Weather History Date:

Thursday, May 15, 2014

  Actual Average Record
Temperature  
Mean Temperature 63 °F -  
Max Temperature 70 °F 65 °F 84 °F (2004)
Min Temperature 57 °F 46 °F 41 °F (1999)
Degree Days  
Heating Degree Days 2    
Growing Degree Days 13 (Base 50)    
Moisture  
Dew Point 61 °F    
Average Humidity 94    
Maximum Humidity 100    
Minimum Humidity 84    
Precipitation  
Precipitation 0.10 in - - ()
Sea Level Pressure  
Sea Level Pressure 30.19 in    
Wind  
Wind Speed 6 mph (ESE)    
Max Wind Speed 14 mph    
Max Gust Speed 16 mph    
Visibility 2 miles    
Events Fog , Rain    
Averages and records for this station are not official NWS values.
T = Trace of Precipitation, MM = Missing Value Source: NWS Daily Summary

Daily Weather History Graph

Daily Weather History Graph

Search for Another Location

Airport:

Trip Planner

Search our weather history database for the weather conditions in past years. The results will help you decide how hot, cold, wet, or windy it might be!

Date:

Astronomy

May. 15, 2014 Rise Set
Actual Time 5:36 AM EDT 8:06 PM EDT
Civil Twilight 5:05 AM EDT 8:37 PM EDT
Nautical Twilight 4:26 AM EDT 9:16 PM EDT
Astronomical Twilight 3:43 AM EDT 10:00 PM EDT
Moon 9:11 PM EDT (5/15) 6:21 AM EDT (5/15)
Length of Visible Light 15h 31m
Length of Day
14h 29m
Full, 99% of the Moon is Illuminated
May 15
Full
May 21
Last Quarter
May 28
New
Jun 5
First Quarter
Jun 13
Full

Hourly Weather History & Observations

Time (EDT) Temp. Dew Point Humidity Pressure Visibility Wind Dir Wind Speed Gust Speed Precip Events Conditions
12:56 AM 57.0 °F 55.0 °F 93% 30.25 in 1.0 mi East 3.5 mph - N/A   Mist
1:28 AM 57.2 °F 55.4 °F 94% 30.24 in 0.5 mi East 5.8 mph - N/A Fog Fog
1:56 AM 57.0 °F 55.9 °F 96% 30.23 in 0.2 mi East 3.5 mph - N/A Fog Fog
2:56 AM 57.0 °F 55.9 °F 96% 30.22 in 0.2 mi East 4.6 mph - N/A Fog Fog
3:56 AM 57.0 °F 55.9 °F 96% 30.21 in 0.2 mi East 6.9 mph - 0.02 in Fog , Rain Light Rain
4:56 AM 57.9 °F 57.0 °F 97% 30.20 in 0.2 mi East 5.8 mph - 0.00 in   Drizzle
5:01 AM 57.2 °F 57.2 °F 100% 30.21 in 0.2 mi ESE 4.6 mph - 0.00 in   Drizzle
5:56 AM 59.0 °F 57.9 °F 96% 30.20 in 0.2 mi East 5.8 mph - 0.01 in   Drizzle
6:09 AM 59.0 °F 57.2 °F 94% 30.21 in 0.2 mi East 5.8 mph - 0.00 in   Drizzle
6:23 AM 59.0 °F 57.2 °F 94% 30.21 in 0.2 mi ESE 5.8 mph - 0.01 in   Drizzle
6:31 AM 59.0 °F 57.2 °F 94% 30.21 in 0.2 mi East 5.8 mph - 0.01 in   Drizzle
6:56 AM 59.0 °F 59.0 °F 100% 30.21 in 0.2 mi East 4.6 mph - 0.01 in Fog Drizzle
7:56 AM 60.1 °F 59.0 °F 96% 30.21 in 0.2 mi East 5.8 mph - 0.01 in Fog , Rain Light Rain
8:56 AM 61.0 °F 60.1 °F 97% 30.21 in 0.2 mi East 5.8 mph - 0.02 in Fog , Rain Light Rain
9:56 AM 62.1 °F 60.1 °F 93% 30.22 in 0.2 mi ESE 3.5 mph - 0.00 in Fog , Rain Light Rain
10:56 AM 63.0 °F 62.1 °F 97% 30.21 in 0.2 mi ESE 5.8 mph - 0.01 in Fog Fog
11:16 AM 62.6 °F 62.6 °F 100% 30.21 in 0.5 mi East 3.5 mph - N/A Fog Fog
11:19 AM 62.6 °F 62.6 °F 100% 30.21 in 0.2 mi ESE 4.6 mph - N/A Fog Fog
11:56 AM 63.0 °F 62.1 °F 97% 30.20 in 0.2 mi ESE 4.6 mph - 0.01 in Fog Fog
12:03 PM 64.4 °F 62.6 °F 94% 30.20 in 0.8 mi East 4.6 mph - N/A Fog Fog
12:10 PM 64.4 °F 62.6 °F 94% 30.20 in 1.2 mi ESE 4.6 mph - N/A Fog Fog
12:21 PM 64.4 °F 62.6 °F 94% 30.20 in 0.8 mi SE 5.8 mph - N/A Fog Fog
12:56 PM 64.9 °F 64.0 °F 97% 30.19 in 0.8 mi ESE 5.8 mph - N/A Fog Fog
1:56 PM 66.9 °F 64.9 °F 93% 30.18 in 1.5 mi SSE 9.2 mph - N/A   Overcast
2:56 PM 68.0 °F 64.9 °F 90% 30.16 in 3.0 mi SE 9.2 mph - N/A   Overcast
3:56 PM 68.0 °F 64.0 °F 87% 30.14 in 7.0 mi ESE 8.1 mph - N/A   Overcast
4:56 PM 69.1 °F 64.0 °F 84% 30.13 in 8.0 mi SE 12.7 mph - N/A   Mostly Cloudy
5:56 PM 68.0 °F 64.0 °F 87% 30.14 in 8.0 mi SE 11.5 mph - N/A   Mostly Cloudy
6:56 PM 68.0 °F 64.0 °F 87% 30.13 in 6.0 mi SE 8.1 mph - 0.00 in Rain Light Rain
7:21 PM 66.2 °F 64.4 °F 94% 30.14 in 5.0 mi SSE 10.4 mph 16.1 mph 0.01 in   Overcast
7:56 PM 66.0 °F 64.0 °F 93% 30.14 in 1.5 mi SE 10.4 mph - 0.01 in   Overcast
8:56 PM 64.9 °F 64.0 °F 97% 30.14 in 1.5 mi SE 9.2 mph - N/A   Mist
9:56 PM 64.9 °F 64.0 °F 97% 30.13 in 1.5 mi SE 8.1 mph - N/A   Mist
10:56 PM 64.9 °F 63.0 °F 93% 30.12 in 2.0 mi SE 10.4 mph - N/A   Mist
11:56 PM 64.9 °F 63.0 °F 93% 30.10 in 2.0 mi SE 13.8 mph - N/A   Overcast